Location: ???????
(54.9996°N, 37.9529°E)
Time: 10:25:12
(UTC+00:00)

YAOGAN 11 - Pass Details

Date: 14 April 2024
Orbit: 606 x 659 km, 98.4° (Epoch: 18 May)

Event Time Altitude Azimuth Distance (km) Brightness Sun altitude
Rises 01:42:04 0° 160° (SSE) 2,959 7.5 -6.8°
Reaches altitude 10° 01:44:15 10° 160° (SSE) 2,059 6.7 -6.5°
Maximum altitude 01:48:46 86° 72° (ENE) 668 4.3 -5.9°
Drops below altitude 10° 01:53:21 10° 345° (NNW) 2,092 6.9 -5.3°
Sets 01:55:35 0° 345° (NNW) 3,010 7.7 -5.0°
